TimeEDT,TemperatureF,Dew PointF,Humidity,Sea Level PressureIn,VisibilityMPH,Wind Direction,Wind SpeedMPH,Gust SpeedMPH,PrecipitationIn,Events,Conditions,WindDirDegrees,DateUTC
12:53 AM,75.9,63.0,64,30.03,10.0,ESE,11.5,-,N/A,,Scattered Clouds,110,2013-04-29 04:53:00
1:53 AM,75.9,64.9,69,30.01,10.0,ESE,10.4,-,N/A,,Scattered Clouds,120,2013-04-29 05:53:00
2:53 AM,75.0,63.0,66,30.01,10.0,ESE,8.1,-,N/A,,Partly Cloudy,120,2013-04-29 06:53:00
3:53 AM,75.9,64.0,67,29.99,10.0,SE,11.5,-,N/A,,Overcast,130,2013-04-29 07:53:00
4:53 AM,75.9,64.0,67,30.00,10.0,ESE,13.8,-,N/A,,Mostly Cloudy,110,2013-04-29 08:53:00
5:53 AM,75.0,64.0,69,30.00,10.0,ESE,10.4,-,N/A,,Partly Cloudy,110,2013-04-29 09:53:00
6:53 AM,75.9,64.9,69,30.01,10.0,ESE,9.2,-,N/A,,Mostly Cloudy,110,2013-04-29 10:53:00
7:53 AM,77.0,66.0,69,30.02,10.0,ESE,16.1,20.7,N/A,,Mostly Cloudy,120,2013-04-29 11:53:00
8:53 AM,78.1,66.0,66,30.03,10.0,ESE,15.0,20.7,N/A,,Scattered Clouds,120,2013-04-29 12:53:00
9:53 AM,79.0,66.9,66,30.03,10.0,ESE,15.0,-,N/A,,Clear,110,2013-04-29 13:53:00
10:53 AM,81.0,68.0,65,30.05,10.0,SE,13.8,24.2,N/A,,Mostly Cloudy,130,2013-04-29 14:53:00
11:53 AM,81.0,68.0,65,30.05,10.0,ESE,13.8,23.0,N/A,,Scattered Clouds,120,2013-04-29 15:53:00
12:53 PM,82.0,68.0,62,30.03,10.0,SE,13.8,-,N/A,,Scattered Clouds,140,2013-04-29 16:53:00
1:53 PM,82.0,68.0,62,30.02,10.0,SE,16.1,-,N/A,,Partly Cloudy,130,2013-04-29 17:53:00
2:53 PM,78.1,69.1,74,29.99,10.0,ESE,12.7,-,N/A,,Partly Cloudy,110,2013-04-29 18:53:00
3:53 PM,77.0,70.0,79,30.00,10.0,SE,11.5,-,0.00,,Mostly Cloudy,130,2013-04-29 19:53:00
4:53 PM,78.1,69.1,74,29.99,10.0,SE,12.7,-,0.00,,Scattered Clouds,140,2013-04-29 20:53:00
5:48 PM,78.8,69.8,74,29.96,10.0,SE,9.2,-,0.00,,Overcast,140,2013-04-29 21:48:00
5:53 PM,78.1,69.1,74,29.97,10.0,SSE,6.9,-,0.00,,Overcast,150,2013-04-29 21:53:00
6:25 PM,78.8,69.8,74,29.96,10.0,ESE,11.5,-,N/A,,Scattered Clouds,120,2013-04-29 22:25:00
6:53 PM,78.1,70.0,76,29.96,10.0,SE,15.0,-,N/A,,Partly Cloudy,130,2013-04-29 22:53:00
7:53 PM,77.0,70.0,79,29.97,10.0,SE,11.5,17.3,N/A,,Scattered Clouds,140,2013-04-29 23:53:00
8:53 PM,77.0,70.0,79,29.98,10.0,SE,11.5,18.4,N/A,,Clear,140,2013-04-30 00:53:00
9:53 PM,77.0,70.0,79,29.97,10.0,SE,15.0,20.7,N/A,,Clear,140,2013-04-30 01:53:00
10:53 PM,77.0,71.1,82,29.98,10.0,SSE,12.7,19.6,N/A,,Clear,150,2013-04-30 02:53:00
11:53 PM,77.0,71.1,82,29.98,10.0,SSE,10.4,-,N/A,,Clear,150,2013-04-30 03:53:00